FW1245 Weather Reports


time (UTC)temp
C
wind
direction
speed
KPH
gust
KPH
rain 1hr
cm
rain 24hr
cm
rain mn
cm
humidity
%
barometer
mb
20260510171516 11 293 1.6 6.4 0.00 0.28 0.00 87 1013.3
20260510171016 11 293 1.6 4.8 0.00 0.28 0.00 88 1013.3
20260510170516 11 293 3.2 12.9 0.00 0.30 0.00 88 1013.3
20260510170037 11 0.0 6.4 0.00 0.30 0.00 88 1013.3
20260510165516 11 315 1.6 11.3 0.00 0.30 0.00 88 1013.3
20260510165037 11 315 3.2 12.9 0.00 0.33 0.00 87 1013.4
20260510164537 11 315 1.6 8.0 0.00 0.33 0.00 87 1013.5
20260510164036 11 293 4.8 19.3 0.00 0.33 0.00 86 1013.5
20260510163516 11 248 4.8 12.9 0.00 0.33 0.00 86 1013.5
20260510163016 11 315 1.6 6.4 0.00 0.33 0.00 86 1013.5
20260510162517 11 315 1.6 4.8 0.00 0.36 0.00 86 1013.5
20260510162037 11 293 1.6 4.8 0.00 0.38 0.00 88 1013.5
20260510161516 11 293 1.6 4.8 0.00 0.38 0.00 88 1013.4
20260510161016 11 293 1.6 11.3 0.00 0.41 0.00 87 1013.4
20260510160516 11 0.0 1.6 0.00 0.41 0.00 87 1013.3
20260510160016 11 203 1.6 6.4 0.00 0.43 0.00 87 1013.3
20260510155516 11 293 1.6 4.8 0.00 0.43 0.00 87 1013.2
20260510155036 11 293 1.6 6.4 0.00 0.46 0.00 86 1013.3
20260510154516 11 293 3.2 19.3 0.00 0.46 0.00 85 1013.3
20260510154016 11 270 4.8 17.7 0.00 0.48 0.00 85 1013.1
20260510153516 11 23 1.6 6.4 0.00 0.51 0.00 85 1013.2
20260510153016 12 293 3.2 9.7 0.00 0.53 0.00 86 1013.1
20260510152516 12 293 1.6 8.0 0.00 0.53 0.00 85 1013.1
20260510152016 11 315 3.2 16.1 0.00 0.56 0.00 86 1013.0
20260510151516 11 248 1.6 6.4 0.00 0.56 0.00 87 1013.1
20260510151036 11 270 1.6 6.4 0.00 0.58 0.00 88 1012.9
20260510150516 11 248 3.2 11.3 0.00 0.58 0.00 86 1012.7
20260510150016 12 23 1.6 11.3 0.00 0.61 0.00 86 1012.7
20260510145536 12 135 1.6 3.2 0.00 0.61 0.00 86 1012.8
20260510145016 12 293 1.6 6.4 0.00 0.64 0.00 87 1012.6
20260510144516 12 68 3.2 11.3 0.00 0.64 0.00 86 1012.7
20260510144016 12 315 3.2 14.5 0.00 0.66 0.00 86 1012.9
20260510143516 12 293 3.2 8.0 0.00 0.66 0.00 85 1012.8
20260510143016 12 293 1.6 6.4 0.00 0.66 0.00 84 1012.8
20260510142516 12 270 1.6 6.4 0.00 0.69 0.00 84 1012.6
20260510142036 12 225 3.2 17.7 0.00 0.69 0.00 82 1012.4
20260510141516 13 338 3.2 11.3 0.00 0.69 0.00 81 1012.3
20260510141016 13 293 3.2 17.7 0.00 0.69 0.00 81 1012.0
20260510140516 13 293 3.2 16.1 0.00 0.69 0.00 79 1012.0
20260510140016 13 293 3.2 12.9 0.00 0.69 0.00 77 1012.0
20260510135516 13 293 4.8 12.9 0.00 0.69 0.00 76 1012.0
20260510135016 14 315 1.6 9.7 0.00 0.69 0.00 77 1011.9
20260510134516 15 270 1.6 8.0 0.00 0.69 0.00 76 1012.0
20260510134016 15 315 3.2 11.3 0.00 0.69 0.00 77 1011.9
20260510133516 15 0 1.6 6.4 0.00 0.69 0.00 77 1011.8
20260510133016 15 0 1.6 8.0 0.00 0.69 0.00 78 1011.9
20260510132536 15 0 3.2 9.7 0.00 0.69 0.00 75 1012.0
20260510132016 15 293 1.6 6.4 0.00 0.69 0.00 77 1011.9
20260510131516 15 293 3.2 9.7 0.00 0.69 0.00 76 1012.1
20260510131016 15 338 1.6 8.0 0.00 0.69 0.00 75 1012.0
20260510130516 15 270 3.2 16.1 0.00 0.69 0.00 77 1012.1
20260510130016 15 248 4.8 17.7 0.00 0.69 0.00 76 1012.0
20260510125516 15 315 4.8 16.1 0.00 0.69 0.00 77 1012.0
20260510125016 15 135 4.8 17.7 0.00 0.69 0.00 81 1011.9
20260510124516 14 135 3.2 16.1 0.00 0.69 0.00 76 1011.8
20260510124016 14 0.0 4.8 0.00 0.69 0.00 81 1011.7
20260510123516 13 315 1.6 6.4 0.00 0.69 0.00 79 1011.3
20260510123016 13 338 3.2 19.3 0.00 0.69 0.00 77 1011.3
20260510122516 13 293 4.8 14.5 0.00 0.69 0.00 77 1011.4
20260510122016 14 158 3.2 9.7 0.00 0.69 0.00 79 1011.6
20260510121516 13 45 3.2 9.7 0.00 0.69 0.00 84 1011.5
20260510121036 13 23 3.2 8.0 0.00 0.69 0.00 87 1011.5
20260510120516 13 0 3.2 6.4 0.00 0.69 0.00 86 1011.5
20260510120036 12 23 3.2 4.8 0.00 0.69 0.00 89 1011.6
20260510115516 12 23 3.2 4.8 0.00 0.69 0.00 89 1011.5
20260510115016 12 23 3.2 6.4 0.00 0.69 0.00 90 1011.4
20260510114516 11 23 3.2 4.8 0.00 0.69 0.00 91 1011.4
20260510114016 11 23 3.2 6.4 0.00 0.69 0.00 92 1011.3
20260510113517 11 23 3.2 6.4 0.00 0.69 0.00 93 1011.2
20260510113016 10 23 3.2 8.0 0.00 0.69 0.00 95 1011.0
20260510112515 10 0.0 4.8 0.00 0.69 0.00 97 1011.2
20260510112016 10 0.0 1.6 0.00 0.69 0.00 97 1011.1
20260510111516 10 0.0 0.0 0.00 0.69 0.00 97 1011.0
20260510111015 9 0.0 0.0 0.00 0.69 0.00 98 1010.9
20260510110516 9 0.0 0.0 0.00 0.69 0.00 99 1011.0
20260510110015 9 0.0 0.0 0.00 0.69 0.00 99 1010.9
20260510105516 8 0.0 1.6 0.00 0.69 0.00 99 1010.7
20260510105016 8 338 1.6 6.4 0.00 0.69 0.00 99 1010.7
20260510104515 8 0.0 0.0 0.00 0.69 0.00 98 1010.7
20260510104016 8 225 1.6 3.2 0.00 0.69 0.00 97 1010.6
20260510103515 8 0.0 1.6 0.00 0.69 0.00 98 1010.6
20260510103016 8 0.0 0.0 0.00 0.69 0.00 98 1010.7
20260510102536 7 0.0 0.0 0.00 0.69 0.00 98 1010.6
20260510102015 7 0.0 0.0 0.00 0.69 0.00 98 1010.6
20260510101516 7 0.0 3.2 0.00 0.69 0.00 97 1010.4
20260510101015 7 0.0 3.2 0.00 0.69 0.00 97 1010.4
20260510100516 7 225 1.6 4.8 0.00 0.69 0.00 98 1010.2
20260510100016 7 0.0 3.2 0.00 0.69 0.00 97 1010.2
20260510095515 7 0.0 1.6 0.00 0.69 0.00 97 1009.9
20260510095015 7 0.0 3.2 0.00 0.69 0.00 97 1009.8
20260510094556 7 0.0 0.0 0.00 0.69 0.00 97 1009.7
20260510094016 7 0.0 0.0 0.00 0.69 0.00 96 1009.5
20260510093515 7 0.0 1.6 0.00 0.69 0.00 96 1009.5
20260510093015 7 0.0 0.0 0.00 0.69 0.00 96 1009.5
20260510092536 8 0.0 1.6 0.00 0.69 0.00 96 1009.3
20260510092015 8 0.0 3.2 0.00 0.69 0.00 96 1009.3
20260510091515 8 0.0 3.2 0.00 0.69 0.00 96 1009.1
20260510091015 8 0.0 3.2 0.00 0.69 0.00 96 1009.3
20260510090515 8 0.0 3.2 0.00 0.69 0.00 96 1009.5
20260510090016 8 0.0 1.6 0.00 0.69 0.00 96 1009.5
20260510085516 8 225 1.6 4.8 0.00 0.69 0.00 96 1009.4
20260510085036 8 0.0 3.2 0.00 0.69 0.00 95 1009.6
20260510084515 9 0.0 3.2 0.00 0.69 0.00 95 1009.4
20260510084015 9 225 1.6 6.4 0.00 0.69 0.00 94 1009.5
20260510083515 9 0.0 1.6 0.00 0.69 0.00 94 1009.5
20260510083018 10 225 1.6 3.2 0.00 0.69 0.00 94 1009.2
20260510082517 10 225 1.6 4.8 0.00 0.69 0.00 93 1009.5
20260510082017 10 270 3.2 9.7 0.00 0.69 0.00 93 1009.6
20260510081537 10 135 6.4 16.1 0.00 0.69 0.00 94 1009.7
20260510081017 10 293 1.6 4.8 0.00 0.69 0.00 94 1010.0
20260510080517 10 0.0 1.6 0.00 0.69 0.00 95 1010.1
20260510080017 10 293 1.6 6.4 0.00 0.69 0.00 94 1010.4
20260510075517 10 0.0 3.2 0.00 0.69 0.00 95 1010.4
20260510075017 10 225 1.6 4.8 0.00 0.69 0.00 95 1010.5
20260510074516 10 23 1.6 4.8 0.00 0.69 0.00 95 1010.6
20260510074017 10 270 1.6 11.3 0.00 0.69 0.00 95 1010.8
20260510073517 10 113 1.6 4.8 0.00 0.69 0.00 95 1011.0
20260510073017 10 135 1.6 11.3 0.00 0.69 0.00 95 1010.7
20260510072517 10 270 1.6 3.2 0.00 0.69 0.00 95 1010.8
20260510072017 10 270 1.6 14.5 0.00 0.69 0.00 94 1010.7
20260510071517 10 293 1.6 6.4 0.00 0.69 0.00 94 1010.4
20260510071017 10 248 1.6 6.4 0.00 0.69 0.00 94 1010.3
20260510070517 10 0.0 0.0 0.00 0.69 0.00 93 1010.5
20260510070017 10 0.0 1.6 0.00 0.69 0.00 92 1010.4
20260510065517 10 0.0 4.8 0.00 0.69 0.00 92 1010.4
20260510065017 10 225 1.6 4.8 0.00 0.69 0.00 92 1010.2
20260510064517 10 225 1.6 4.8 0.00 0.69 0.00 93 1010.2
20260510064017 10 293 1.6 8.0 0.00 0.69 0.00 92 1010.0
20260510063537 9 270 1.6 6.4 0.00 0.69 0.00 93 1010.0
20260510063017 9 68 3.2 9.7 0.00 0.69 0.00 95 1010.0
20260510062517 8 158 3.2 16.1 0.00 0.69 0.00 96 1010.2
20260510062037 8 293 1.6 9.7 0.00 0.69 0.00 97 1010.2
20260510061517 8 270 1.6 6.4 0.00 0.69 0.00 97 1010.2
20260510061017 8 180 1.6 6.4 0.00 0.69 0.00 96 1010.1
20260510060517 8 0.0 3.2 0.00 0.69 0.00 96 1010.0
20260510060057 8 0.0 3.2 0.00 0.69 0.00 96 1010.0
20260510055517 8 0.0 3.2 0.00 0.69 0.00 96 1010.0
20260510055017 8 0.0 3.2 0.00 0.69 0.00 96 1010.0
20260510054517 8 0.0 3.2 0.00 0.69 0.00 96 1010.2
20260510054017 8 180 1.6 3.2 0.00 0.69 0.00 96 1010.3
20260510053517 8 0.0 3.2 0.00 0.69 0.00 96 1010.3
20260510053017 8 180 1.6 3.2 0.00 0.69 0.00 96 1010.2
20260510052518 8 180 1.6 3.2 0.00 0.69 0.00 96 1010.2
20260510052017 8 0.0 3.2 0.00 0.69 0.00 95 1010.4
20260510051517 8 0.0 1.6 0.00 0.69 0.00 95 1010.2
20260510051017 8 0.0 4.8 0.00 0.69 0.00 95 1010.4
20260510050517 8 0.0 1.6 0.00 0.69 0.00 94 1010.5
20260510050017 8 0.0 1.6 0.00 0.69 0.00 94 1010.4
20260510045517 8 180 1.6 4.8 0.00 0.69 0.00 93 1010.5
20260510045017 9 0.0 3.2 0.00 0.69 0.00 92 1010.4
20260510044517 9 180 1.6 3.2 0.00 0.69 0.00 91 1010.3
20260510044017 10 158 1.6 9.7 0.00 0.69 0.00 90 1010.4
20260510043517 10 158 1.6 11.3 0.00 0.69 0.00 89 1010.3
20260510043057 10 113 3.2 14.5 0.00 0.69 0.00 89 1010.5
20260510042517 10 135 4.8 16.1 0.00 0.69 0.00 89 1010.6
20260510042017 10 135 6.4 17.7 0.00 0.69 0.00 88 1010.7
20260510041537 10 135 4.8 12.9 0.00 0.69 0.00 88 1010.8
20260510041017 10 135 9.7 19.3 0.00 0.69 0.00 88 1010.8
20260510040517 10 135 6.4 16.1 0.00 0.69 0.00 88 1010.6
20260510035517 10 135 6.4 11.3 0.00 0.69 0.69 89 1010.4
20260510035058 10 158 6.4 17.7 0.00 0.69 0.69 89 1010.4
20260510034517 10 135 8.0 22.5 0.00 0.69 0.69 89 1010.4
20260510034037 10 135 8.0 17.7 0.00 0.69 0.69 89 1010.4
20260510033517 10 135 6.4 19.3 0.00 0.69 0.69 90 1010.4
20260510033037 10 135 8.0 22.5 0.00 0.69 0.69 91 1010.5
20260510032517 9 270 1.6 6.4 0.00 0.69 0.69 91 1010.7
20260510032017 9 135 8.0 20.9 0.00 0.69 0.69 91 1010.6
20260510031517 9 135 6.4 14.5 0.00 0.69 0.69 92 1010.5
20260510031017 9 135 6.4 16.1 0.00 0.69 0.69 93 1010.6
20260510030537 8 113 4.8 16.1 0.00 0.69 0.69 95 1010.5
20260510030017 8 203 1.6 11.3 0.00 0.69 0.69 95 1010.7
20260510025537 8 203 1.6 8.0 0.00 0.69 0.69 95 1010.6
20260510025017 8 338 4.8 11.3 0.00 0.69 0.69 95 1010.6
20260510024517 8 338 1.6 4.8 0.00 0.69 0.69 96 1010.6
20260510024017 8 225 3.2 6.4 0.00 0.69 0.69 97 1010.7
20260510023517 8 225 4.8 14.5 0.00 0.69 0.69 98 1010.5
20260510023017 8 293 3.2 9.7 0.00 0.69 0.69 98 1010.7
20260510022517 8 315 1.6 8.0 0.00 0.69 0.69 98 1010.8
20260510022057 8 338 1.6 9.7 0.00 0.69 0.69 98 1010.7
20260510021537 8 0.0 3.2 0.00 0.69 0.69 98 1010.5
20260510021017 8 0.0 3.2 0.00 0.69 0.69 98 1010.3
20260510020638 8 0.0 4.8 0.00 0.69 0.69 98 1010.4
20260510020017 8 0.0 3.2 0.00 0.69 0.69 98 1010.4
20260510015517 7 0.0 0.0 0.00 0.69 0.69 98 1010.7
20260510015017 7 0.0 0.0 0.00 0.69 0.69 98 1010.8
20260510014517 7 0.0 0.0 0.00 0.69 0.69 98 1010.8
20260510014017 7 0.0 0.0 0.00 0.69 0.69 98 1011.0
20260510013517 7 0.0 0.0 0.00 0.69 0.69 97 1011.0
20260510013017 8 0.0 0.0 0.00 0.69 0.69 97 1011.0
20260510012517 8 0.0 0.0 0.00 0.69 0.69 97 1010.9
20260510012017 8 0.0 0.0 0.00 0.69 0.69 97 1010.8
20260510011517 8 0.0 0.0 0.00 0.69 0.69 97 1011.0
20260510011017 8 0.0 0.0 0.00 0.69 0.69 97 1011.0
20260510010537 8 0.0 0.0 0.00 0.69 0.69 97 1011.0
20260510010017 8 0.0 0.0 0.00 0.69 0.69 97 1010.9
20260510005517 8 0.0 1.6 0.00 0.69 0.69 97 1010.9
20260510005017 8 0.0 0.0 0.00 0.69 0.69 97 1010.9
20260510004517 8 0.0 3.2 0.00 0.69 0.69 97 1010.8
20260510004017 8 0.0 1.6 0.00 0.69 0.69 97 1010.7
20260510003537 8 0.0 1.6 0.00 0.69 0.69 97 1010.6
20260510003017 8 0.0 1.6 0.00 0.69 0.69 97 1010.6
20260510002517 8 0.0 1.6 0.00 0.69 0.69 97 1010.5
20260510002037 8 0.0 1.6 0.00 0.69 0.69 97 1010.5
20260510001517 8 0.0 1.6 0.00 0.69 0.69 96 1010.6
20260510001017 8 0.0 3.2 0.00 0.69 0.69 96 1010.6
20260510000517 8 0.0 1.6 0.00 0.69 0.69 96 1010.4
20260510000017 8 0.0 3.2 0.00 0.69 0.69 96 1010.4
20260509235517 8 0.0 1.6 0.00 0.69 0.69 96 1010.2
20260509235016 8 0.0 1.6 0.00 0.69 0.69 96 1010.1
20260509234517 8 0.0 6.4 0.00 0.69 0.69 96 1010.1
20260509234017 8 338 1.6 6.4 0.00 0.69 0.69 95 1010.1
20260509233558 8 0.0 4.8 0.00 0.69 0.69 95 1009.8
20260509233017 8 338 1.6 3.2 0.00 0.69 0.69 95 1009.8
20260509232517 8 338 1.6 4.8 0.00 0.69 0.69 95 1009.8
20260509232037 8 338 1.6 6.4 0.00 0.69 0.69 94 1009.7
20260509231537 9 293 1.6 6.4 0.00 0.69 0.69 94 1009.7
20260509231017 9 0.0 3.2 0.00 0.69 0.69 94 1009.5
20260509230517 9 0.0 3.2 0.00 0.69 0.69 94 1009.5
20260509230017 9 293 1.6 11.3 0.00 0.69 0.69 93 1009.5
20260509225517 9 293 1.6 4.8 0.00 0.69 0.69 93 1009.5
20260509225017 10 293 1.6 8.0 0.00 0.69 0.69 93 1009.5
20260509224517 10 248 1.6 6.4 0.00 0.69 0.69 93 1009.5
20260509224017 10 135 4.8 9.7 0.00 0.69 0.69 92 1009.6
20260509223516 10 135 4.8 12.9 0.00 0.69 0.69 91 1009.4
20260509223037 10 113 3.2 14.5 0.00 0.69 0.69 92 1009.6
20260509222517 10 113 4.8 12.9 0.00 0.69 0.69 92 1009.6
20260509222017 10 135 3.2 6.4 0.00 0.69 0.69 92 1009.7
20260509221516 10 135 1.6 4.8 0.00 0.69 0.69 92 1009.6
20260509221016 10 113 4.8 14.5 0.00 0.69 0.69 92 1009.7
20260509220516 10 113 1.6 4.8 0.00 0.69 0.69 93 1009.7
20260509220016 10 135 4.8 14.5 0.00 0.69 0.69 92 1009.8
20260509215516 10 113 3.2 12.9 0.00 0.69 0.69 92 1009.7
20260509215017 10 158 3.2 6.4 0.00 0.69 0.69 92 1009.7
20260509214537 10 135 3.2 11.3 0.03 0.69 0.69 92 1009.7
20260509214017 10 180 4.8 16.1 0.03 0.69 0.69 92 1009.7
20260509213556 10 180 1.6 8.0 0.03 0.69 0.69 93 1009.8
20260509213017 10 180 1.6 3.2 0.03 0.69 0.69 93 1009.7
20260509212516 10 113 3.2 8.0 0.03 0.69 0.69 92 1009.8
20260509212016 10 135 4.8 11.3 0.03 0.69 0.69 93 1009.9
20260509211517 10 248 1.6 12.9 0.03 0.69 0.69 94 1009.9
20260509211017 9 248 1.6 6.4 0.03 0.69 0.69 93 1010.0
20260509210516 9 113 6.4 19.3 0.03 0.69 0.69 93 1009.9
20260509210017 9 135 1.6 9.7 0.03 0.69 0.69 95 1010.0
20260509205537 9 135 1.6 4.8 0.03 0.69 0.69 94 1010.1
20260509205016 9 135 1.6 8.0 0.03 0.69 0.69 93 1010.0
20260509204516 9 135 4.8 14.5 0.00 0.66 0.66 92 1010.2
20260509204016 10 113 3.2 16.1 0.00 0.66 0.66 92 1010.0
20260509203537 10 113 1.6 6.4 0.00 0.66 0.66 93 1010.3
20260509203016 9 135 6.4 19.3 0.00 0.66 0.66 91 1010.3
20260509202516 9 158 1.6 8.0 0.00 0.66 0.66 93 1010.3
20260509202016 9 135 4.8 12.9 0.00 0.66 0.66 92 1010.3
20260509201516 9 113 1.6 8.0 0.00 0.66 0.66 93 1010.2
20260509201016 10 135 1.6 6.4 0.00 0.66 0.66 95 1010.3
20260509200516 10 45 1.6 8.0 0.00 0.66 0.66 94 1010.3
20260509200016 10 270 1.6 6.4 0.00 0.66 0.66 94 1010.3
20260509195516 10 270 1.6 6.4 0.03 0.66 0.66 94 1010.3
20260509195016 10 0.0 1.6 0.03 0.66 0.66 95 1010.4
20260509194516 10 135 1.6 8.0 0.05 0.66 0.66 93 1010.4
20260509194016 10 135 1.6 8.0 0.05 0.66 0.66 93 1010.4
20260509193516 10 68 1.6 12.9 0.08 0.66 0.66 93 1010.4
20260509193016 9 180 3.2 8.0 0.08 0.66 0.66 92 1010.4
20260509192516 10 158 3.2 11.3 0.10 0.66 0.66 93 1010.5
20260509192017 10 158 3.2 6.4 0.10 0.66 0.66 93 1010.5
20260509191657 10 158 1.6 6.4 0.13 0.66 0.66 94 1010.5
20260509191016 10 158 1.6 8.0 0.15 0.66 0.66 94 1010.5
20260509190516 10 135 3.2 14.5 0.15 0.66 0.66 94 1010.4
20260509190017 9 135 1.6 12.9 0.18 0.66 0.66 94 1010.5
20260509185516 9 113 4.8 14.5 0.18 0.64 0.64 93 1010.6
20260509185016 9 135 4.8 14.5 0.18 0.64 0.64 93 1010.6
20260509184516 9 135 3.2 8.0 0.18 0.61 0.61 94 1010.7
20260509184016 9 158 1.6 6.4 0.18 0.61 0.61 94 1010.6
20260509183516 8 248 3.2 9.7 0.18 0.58 0.58 94 1010.6
20260509183016 8 135 3.2 12.9 0.18 0.58 0.58 93 1010.7
20260509182516 8 135 4.8 12.9 0.15 0.56 0.56 92 1010.7
20260509182016 8 135 4.8 12.9 0.15 0.56 0.56 92 1010.7
20260509181516 9 135 1.6 6.4 0.13 0.53 0.53 94 1010.8
20260509181016 9 135 4.8 12.9 0.10 0.51 0.51 93 1010.7
20260509180516 9 158 6.4 12.9 0.13 0.51 0.51 93 1010.7
20260509180016 8 135 4.8 12.9 0.10 0.48 0.48 93 1010.6
20260509175516 8 113 12.9 22.5 0.08 0.46 0.46 91 1010.6
20260509175016 8 135 8.0 14.5 0.10 0.46 0.46 92 1010.7
20260509174516 8 158 6.4 24.1 0.08 0.43 0.43 91 1010.7
20260509174016 9 135 9.7 24.1 0.08 0.43 0.43 91 1010.8
20260509173538 9 135 1.6 12.9 0.05 0.41 0.41 92 1010.8
20260509173016 8 135 3.2 12.9 0.05 0.41 0.41 92 1010.9
20260509172516 8 135 1.6 6.4 0.08 0.41 0.41 93 1011.0
20260509172016 8 135 3.2 8.0 0.10 0.41 0.41 93 1011.1